Simultaneous Nadir Overpasses (SNOs) Predictions

Prediction of SNOs between AQUA and NPP Satellite Orbit:

Table of predicted SNOs for the next 14.0 days since TLE Epoch: 4/26/2013
Index Date (AQUA) Time (AQUA) Lat,Lon (AQUA) SZA (AQUA ) Date (NPP) Time (NPP) Lat,Lon (NPP) SZA (NPP ) Distance(km) Time Diff (sec)
1 04/27/2013 14:55:29 76.48,-163.17 82.77 04/27/2013 14:54:46 76.49,-163.13 82.80 1.07 43
2 04/27/2013 15:44:41 -77.21, 7.09 98.12 04/27/2013 15:45:15 -77.21, 7.07 98.14 0.70 34
3 04/30/2013 07:11:51 76.78, -46.27 81.59 04/30/2013 07:11:36 76.78, -46.23 81.59 1.12 15
4 04/30/2013 08:01:04 -77.45, 123.92 99.24 04/30/2013 08:02:06 -77.45, 123.90 99.29 0.58 62
5 05/02/2013 22:39:07 -76.12,-100.24 98.43 05/02/2013 22:38:03 -76.11,-100.26 98.37 0.48 64
6 05/02/2013 23:28:16 76.90, 70.06 80.64 05/02/2013 23:28:30 76.89, 69.97 80.65 2.47 14
7 05/05/2013 14:55:29 -76.37, 16.46 99.49 05/05/2013 14:54:54 -76.36, 16.39 99.44 1.87 35
8 05/05/2013 15:44:32 77.42,-172.06 79.24 05/05/2013 15:45:14 77.43,-171.96 79.18 2.49 42
9 05/08/2013 07:11:47 -76.73, 133.60 100.66 05/08/2013 07:11:41 -76.73, 133.57 100.65 0.79 6




NCC Satellite Simultaneous Nadir Overpasses (SNOs) Prediction Service
